Bad Axe, MI

5:31 PM EDT on October 18, 2017 (GMT -0400)
Huron County Memorial

Weather History for KBAX - February, 2013

Change the Weather History Date:

Wednesday, February 13, 2013

  Actual Average (KP58) Record (KP58)
Temperature  
Mean Temperature 28 °F -  
Max Temperature 32 °F 30 °F 44 °F (2011)
Min Temperature 25 °F 18 °F -2 °F (2015)
Degree Days  
Heating Degree Days 36    
Moisture  
Dew Point 23 °F    
Average Humidity 79    
Maximum Humidity 85    
Minimum Humidity 74    
Precipitation  
Precipitation 0.00 in - - ()
Sea Level Pressure  
Sea Level Pressure 29.78 in    
Wind  
Wind Speed 8 mph (SW)    
Max Wind Speed 14 mph    
Max Gust Speed 18 mph    
Visibility 10 miles    
Events      
Averages and records for this station are not official NWS values.
T = Trace of Precipitation, MM = Missing Value Source: NWS Daily Summary

Daily Weather History Graph

Daily Weather History Graph

Search for Another Location

Airport or City:

Trip Planner

Search our weather history database for the weather conditions in past years. The results will help you decide how hot, cold, wet, or windy it might be!

Date:

Astronomy

Feb. 13, 2013 Rise Set
Actual Time 7:33 AM EST 5:59 PM EST
Civil Twilight 7:03 AM EST 6:29 PM EST
Nautical Twilight 6:29 AM EST 7:03 PM EST
Astronomical Twilight 5:56 AM EST 7:36 PM EST
Moon 8:53 AM EST (2/13) 10:11 PM EST (2/13)
Length of Visible Light 11h 25m
Length of Day
10h 26m
Waxing Crescent, 13% of the Moon is Illuminated
Feb 13
Waxing Crescent
Feb 17
First Quarter
Feb 25
Full
Mar 4
Last Quarter
Mar 11
New

Hourly Weather History & Observations

Time (EST) Temp. Windchill Dew Point Humidity Pressure Visibility Wind Dir Wind Speed Gust Speed Precip Events Conditions
12:14 AM 25.7 °F 16.4 °F 19.0 °F 76% 29.88 in 10.0 mi WNW 9.2 mph - N/A   Overcast
12:34 AM 25.5 °F 17.8 °F 18.7 °F 75% 29.88 in 10.0 mi West 6.9 mph - N/A   Overcast
12:54 AM 25.3 °F 15.3 °F 18.5 °F 75% 29.89 in 10.0 mi West 10.4 mph 16.1 mph N/A   Overcast
1:14 AM 25.3 °F 14.7 °F 18.3 °F 75% 29.89 in 10.0 mi West 11.5 mph 16.1 mph N/A   Overcast
1:34 AM 25.2 °F 15.7 °F 18.3 °F 75% 29.88 in 10.0 mi West 9.2 mph - N/A   Overcast
1:54 AM 25.2 °F 15.1 °F 18.5 °F 76% 29.88 in 10.0 mi West 10.4 mph - N/A   Overcast
2:14 AM 25.2 °F 15.1 °F 18.9 °F 77% 29.87 in 10.0 mi West 10.4 mph 16.1 mph N/A   Overcast
2:34 AM 25.2 °F 16.5 °F 18.9 °F 77% 29.87 in 10.0 mi West 8.1 mph - N/A   Overcast
2:54 AM 25.2 °F 19.5 °F 19.0 °F 78% 29.87 in 10.0 mi West 4.6 mph - N/A   Overcast
3:13 AM 25.3 °F 17.6 °F 19.2 °F 78% 29.87 in 10.0 mi West 6.9 mph - N/A   Overcast
3:34 AM 25.3 °F 17.6 °F 19.4 °F 78% 29.87 in 10.0 mi WSW 6.9 mph - N/A   Overcast
3:54 AM 25.5 °F 17.8 °F 19.4 °F 78% 29.86 in 10.0 mi West 6.9 mph - N/A   Overcast
4:13 AM 25.5 °F 18.7 °F 19.8 °F 79% 29.86 in 10.0 mi West 5.8 mph - N/A   Overcast
4:34 AM 25.7 °F 18.0 °F 19.9 °F 79% 29.85 in 10.0 mi West 6.9 mph - N/A   Overcast
4:54 AM 25.7 °F 18.0 °F 20.3 °F 80% 29.85 in 10.0 mi SW 6.9 mph - N/A   Overcast
5:13 AM 26.1 °F 19.4 °F 20.3 °F 79% 29.84 in 10.0 mi WSW 5.8 mph - N/A   Overcast
5:34 AM 26.2 °F 18.6 °F 20.8 °F 80% 29.84 in 10.0 mi WSW 6.9 mph - N/A   Overcast
5:54 AM 26.4 °F 20.9 °F 20.8 °F 79% 29.84 in 10.0 mi WSW 4.6 mph - N/A   Overcast
6:13 AM 26.6 °F 20.0 °F 21.0 °F 79% 29.83 in 10.0 mi WSW 5.8 mph - N/A   Overcast
6:34 AM 26.6 °F 19.1 °F 21.2 °F 80% 29.82 in 10.0 mi West 6.9 mph - N/A   Overcast
6:54 AM 26.6 °F 20.0 °F 21.2 °F 80% 29.82 in 10.0 mi WSW 5.8 mph - N/A   Overcast
7:14 AM 26.6 °F 18.2 °F 21.2 °F 80% 29.82 in 10.0 mi WSW 8.1 mph - N/A   Overcast
7:34 AM 27.0 °F 20.5 °F 21.2 °F 79% 29.81 in 10.0 mi WSW 5.8 mph - N/A   Overcast
7:54 AM 26.6 °F 19.1 °F 21.2 °F 80% 29.81 in 10.0 mi SW 6.9 mph - N/A   Overcast
8:14 AM 26.6 °F 18.2 °F 21.6 °F 81% 29.81 in 10.0 mi WSW 8.1 mph - N/A   Overcast
8:34 AM 26.6 °F 18.2 °F 21.6 °F 81% 29.80 in 10.0 mi SW 8.1 mph - N/A   Overcast
8:54 AM 26.8 °F 20.2 °F 21.4 °F 80% 29.79 in 10.0 mi SW 5.8 mph - N/A   Overcast
9:14 AM 27.0 °F 19.5 °F 21.6 °F 80% 29.80 in 10.0 mi SW 6.9 mph - N/A   Overcast
9:34 AM 27.1 °F 19.7 °F 21.7 °F 80% 29.79 in 10.0 mi SSW 6.9 mph - N/A   Overcast
9:54 AM 27.3 °F 18.4 °F 21.7 °F 80% 29.79 in 10.0 mi SSW 9.2 mph - N/A   Overcast
10:14 AM 27.5 °F 18.0 °F 21.7 °F 79% 29.78 in 10.0 mi SSW 10.4 mph - N/A   Overcast
10:34 AM 27.7 °F 19.6 °F 22.1 °F 80% 29.78 in 10.0 mi SSW 8.1 mph - N/A   Overcast
10:54 AM 28.0 °F 20.0 °F 22.3 °F 79% 29.78 in 10.0 mi SSW 8.1 mph - N/A   Overcast
11:14 AM 28.4 °F 19.7 °F 22.6 °F 79% 29.77 in 10.0 mi SSW 9.2 mph - N/A   Overcast
11:34 AM 28.6 °F 19.9 °F 22.3 °F 77% 29.78 in 10.0 mi SSW 9.2 mph - N/A   Overcast
11:55 AM 29.1 °F 20.6 °F 23.0 °F 78% 29.78 in 10.0 mi South 9.2 mph - N/A   Overcast
12:14 PM 29.3 °F 19.6 °F 23.0 °F 77% 29.78 in 10.0 mi SW 11.5 mph - N/A   Overcast
12:34 PM 29.8 °F 19.8 °F 23.5 °F 77% 29.76 in 10.0 mi SSW 12.7 mph - N/A   Overcast
12:54 PM 30.0 °F 19.5 °F 23.7 °F 77% 29.76 in 10.0 mi SSW 13.8 mph 18.4 mph N/A   Overcast
1:14 PM 30.2 °F 20.2 °F 23.7 °F 77% 29.75 in 10.0 mi SSW 12.7 mph 18.4 mph N/A   Overcast
1:34 PM 30.7 °F 20.9 °F 23.9 °F 76% 29.74 in 10.0 mi SSW 12.7 mph - N/A   Overcast
1:55 PM 31.1 °F 21.9 °F 23.9 °F 75% 29.73 in 10.0 mi SW 11.5 mph - N/A   Overcast
2:14 PM 31.5 °F 22.3 °F 24.4 °F 75% 29.73 in 10.0 mi SSW 11.5 mph - N/A   Overcast
2:34 PM 31.5 °F 22.9 °F 24.3 °F 75% 29.72 in 10.0 mi SSW 10.4 mph - N/A   Overcast
2:54 PM 31.5 °F 24.2 °F 24.3 °F 75% 29.72 in 10.0 mi SW 8.1 mph - N/A   Overcast
3:14 PM 32.0 °F 24.8 °F 24.4 °F 74% 29.72 in 10.0 mi WSW 8.1 mph - N/A   Overcast
3:34 PM 31.8 °F 23.9 °F 24.4 °F 74% 29.72 in 10.0 mi SW 9.2 mph - N/A   Overcast
3:54 PM 32.0 °F 24.8 °F 24.6 °F 74% 29.72 in 10.0 mi SW 8.1 mph - N/A   Overcast
4:14 PM 32.0 °F 23.6 °F 24.6 °F 74% 29.71 in 10.0 mi WSW 10.4 mph - N/A   Overcast
4:34 PM 31.6 °F 23.7 °F 24.3 °F 74% 29.72 in 10.0 mi WSW 9.2 mph - N/A   Overcast
4:54 PM 31.1 °F 23.7 °F 24.3 °F 76% 29.72 in 10.0 mi WSW 8.1 mph - N/A   Overcast
5:14 PM 30.9 °F 22.8 °F 24.4 °F 77% 29.72 in 10.0 mi SW 9.2 mph - N/A   Overcast
5:35 PM 30.7 °F 24.1 °F 24.8 °F 79% 29.72 in 10.0 mi SW 6.9 mph - N/A   Overcast
5:54 PM 30.7 °F 23.3 °F 25.3 °F 80% 29.73 in 10.0 mi SW 8.1 mph - N/A   Overcast
6:14 PM 30.7 °F 22.6 °F 25.5 °F 81% 29.73 in 10.0 mi SW 9.2 mph - N/A   Overcast
6:35 PM 31.1 °F 23.7 °F 25.7 °F 80% 29.73 in 10.0 mi SW 8.1 mph - N/A   Overcast
6:54 PM 30.9 °F 25.2 °F 25.7 °F 81% 29.73 in 10.0 mi SW 5.8 mph - N/A   Overcast
7:14 PM 30.9 °F 25.2 °F 25.7 °F 81% 29.73 in 10.0 mi SSW 5.8 mph - N/A   Overcast
7:35 PM 30.6 °F 25.8 °F 26.1 °F 83% 29.73 in 10.0 mi SSW 4.6 mph - N/A   Overcast
7:54 PM 30.6 °F 25.8 °F 26.1 °F 83% 29.74 in 10.0 mi SSW 4.6 mph - N/A   Overcast
8:15 PM 30.6 °F 25.8 °F 26.2 °F 84% 29.74 in 10.0 mi SSW 4.6 mph - N/A   Overcast
8:34 PM 30.6 °F 27.1 °F 26.2 °F 84% 29.74 in 10.0 mi SSW 3.5 mph - N/A   Overcast
8:54 PM 30.2 °F 25.4 °F 26.1 °F 85% 29.74 in 10.0 mi SSW 4.6 mph - N/A   Overcast
9:15 PM 30.2 °F 25.4 °F 25.7 °F 83% 29.74 in 10.0 mi South 4.6 mph - N/A   Overcast
9:34 PM 30.0 °F - 26.1 °F 85% 29.74 in 10.0 mi Calm Calm - N/A   Overcast
9:54 PM 30.0 °F 26.5 °F 26.1 °F 85% 29.74 in 10.0 mi South 3.5 mph - N/A   Overcast
10:14 PM 30.2 °F 26.7 °F 25.7 °F 83% 29.74 in 10.0 mi SSE 3.5 mph - N/A   Overcast
10:34 PM 30.2 °F - 25.7 °F 83% 29.74 in 10.0 mi Calm Calm - N/A   Overcast
10:54 PM 30.0 °F 25.2 °F 25.7 °F 84% 29.74 in 10.0 mi South 4.6 mph - N/A   Overcast
11:13 PM 30.2 °F 24.3 °F 25.9 °F 84% 29.73 in 10.0 mi South 5.8 mph - N/A   Overcast
11:34 PM 30.2 °F 25.4 °F 26.1 °F 85% 29.73 in 10.0 mi South 4.6 mph - N/A   Overcast
11:54 PM 30.2 °F 25.4 °F 26.2 °F 85% 29.73 in 10.0 mi South 4.6 mph - N/A   Overcast